Location: Centerville
(32.8776°N, 96.6203°W)
Time: 00:40:14
(UTC+00:00)

Cosmos 1302 Rocket - Pass Details

Date: 17 June 2021
Orbit: 757 x 775 km, 74.0° (Epoch: 01 August)

Event Time Altitude Azimuth Distance (km) Brightness Sun altitude
Exits shadow 04:23:09 78° 70° (ENE) 790 3.9 -26.4°
Drops below altitude 10° 04:28:11 10° 19° (NNE) 2,311 6.9 -27.0°
Sets 04:30:34 0° 19° (NNE) 3,238 7.8 -27.2°
